GW0655 Weather Reports


Display with metric or nautical units.
time (UTC)temp
F
wind
direction
speed
MPH
gust
MPH
rain 1hr
in
rain 24hr
in
rain mn
in
humidity
%
barometer
mb
20260905102015 76 272 0.0 0.0 0.00 0.00 0.00 92 1015.2
20260905101513 76 262 0.0 0.0 0.00 0.00 0.00 92 1014.8
20260905101011 76 268 0.0 0.0 0.00 0.00 0.00 92 1014.8
20260905100508 76 271 0.0 0.0 0.00 0.00 0.00 92 1014.8
20260905100008 76 274 0.0 0.0 0.00 0.00 0.00 92 1014.5
20260905095502 77 255 0.0 0.0 0.00 0.00 0.00 92 1014.8
20260905094957 77 269 0.0 0.0 0.00 0.00 0.00 92 1014.5
20260905094452 76 263 0.0 0.0 0.00 0.00 0.00 92 1014.5
20260905093951 76 256 0.0 0.0 0.00 0.00 0.00 92 1014.8
20260905093447 76 255 0.0 0.0 0.00 0.00 0.00 91 1014.5
20260905092942 76 260 0.0 0.0 0.00 0.00 0.00 91 1014.5
20260905092438 76 260 0.0 0.0 0.00 0.00 0.00 90 1014.8
20260905091933 76 260 0.0 0.0 0.00 0.00 0.00 90 1014.8
20260905091433 76 259 0.0 0.0 0.00 0.00 0.00 90 1014.8
20260905090932 77 246 0.0 0.0 0.00 0.00 0.00 90 1014.8
20260905090428 77 237 0.0 0.0 0.00 0.00 0.00 90 1014.5
20260905085927 77 249 0.0 0.0 0.00 0.00 0.00 90 1014.8
20260905085426 77 241 0.0 0.0 0.00 0.00 0.00 90 1014.8
20260905084922 77 262 0.0 0.0 0.00 0.00 0.00 89 1014.8
20260905084421 77 241 0.0 0.0 0.00 0.00 0.00 89 1014.8
20260905083916 77 249 0.0 0.0 0.00 0.00 0.00 89 1014.8
20260905083412 77 234 0.0 0.0 0.00 0.00 0.00 89 1014.8
20260905082908 77 240 0.0 0.0 0.00 0.00 0.00 88 1014.8
20260905082404 77 246 0.0 0.0 0.00 0.00 0.00 88 1015.2
20260905081858 77 249 0.0 0.0 0.00 0.00 0.00 88 1015.2
20260905081353 78 251 0.0 0.0 0.00 0.00 0.00 88 1015.2
20260905080852 78 245 0.0 0.0 0.00 0.00 0.00 88 1014.8
20260905080347 78 233 0.0 0.0 0.00 0.00 0.00 87 1015.2
20260905075846 78 238 0.0 1.0 0.00 0.00 0.00 86 1015.2
20260905075345 78 214 0.0 0.0 0.00 0.00 0.00 86 1015.2
20260905074844 78 245 0.0 0.0 0.00 0.00 0.00 86 1015.2
20260905074341 78 239 0.0 0.0 0.00 0.00 0.00 85 1015.2
20260905073836 78 241 0.0 0.0 0.00 0.00 0.00 85 1015.2
20260905073331 78 231 0.0 1.0 0.00 0.00 0.00 85 1015.2
20260905072826 78 236 0.0 0.0 0.00 0.00 0.00 85 1015.2
20260905072321 78 225 0.0 0.0 0.00 0.00 0.00 84 1015.2
20260905071818 78 239 0.0 0.0 0.00 0.00 0.00 84 1015.2
20260905071314 79 240 0.0 0.0 0.00 0.00 0.00 84 1015.5
20260905070808 79 242 0.0 0.0 0.00 0.00 0.00 83 1015.5
20260905070304 79 234 0.0 0.0 0.00 0.00 0.00 83 1015.5
20260905065803 79 231 0.0 0.0 0.00 0.00 0.00 83 1015.5
20260905065256 79 235 0.0 0.0 0.00 0.00 0.00 83 1015.5
20260905064752 79 239 0.0 0.0 0.00 0.00 0.00 82 1015.5
20260905064247 79 237 0.0 0.0 0.00 0.00 0.00 82 1015.5
20260905063746 79 249 0.0 0.0 0.00 0.00 0.00 82 1015.2
20260905063242 79 249 0.0 1.0 0.00 0.00 0.00 81 1015.5
20260905062738 79 251 0.0 0.0 0.00 0.00 0.00 81 1015.5
20260905062238 80 226 0.0 0.0 0.00 0.00 0.00 80 1015.5
20260905061738 80 208 0.0 0.0 0.00 0.00 0.00 80 1015.5
20260905061232 80 255 0.0 1.0 0.00 0.00 0.00 80 1015.5
20260905060726 80 221 1.0 2.0 0.00 0.00 0.00 80 1015.5
20260905060224 80 246 0.0 1.0 0.00 0.00 0.00 79 1015.8
20260905055721 80 239 0.0 1.0 0.00 0.00 0.00 79 1015.2
20260905055217 80 246 0.0 0.0 0.00 0.00 0.00 79 1015.5
20260905054712 80 248 0.0 0.0 0.00 0.00 0.00 79 1015.5
20260905054209 80 227 1.0 1.0 0.00 0.00 0.00 78 1015.5
20260905053708 80 225 0.0 1.0 0.00 0.00 0.00 78 1015.5
20260905053202 81 165 0.0 1.0 0.00 0.00 0.00 77 1015.5
20260905052657 81 249 0.0 0.0 0.00 0.00 0.00 77 1015.5
20260905052152 81 232 0.0 1.0 0.00 0.00 0.00 77 1015.2
20260905051646 81 255 0.0 0.0 0.00 0.00 0.00 76 1015.8
20260905051143 81 137 1.0 2.0 0.00 0.00 0.00 76 1015.8
20260905050639 81 184 0.0 1.0 0.00 0.00 0.00 76 1015.5
20260905050136 81 229 1.0 1.0 0.00 0.00 0.00 76 1015.5
20260905045635 81 216 1.0 1.0 0.00 0.00 0.00 76 1015.5
20260905045131 81 211 0.0 0.0 0.00 0.00 0.00 75 1015.5
20260905044631 82 250 0.0 1.0 0.00 0.00 0.00 75 1015.5
20260905044126 82 215 0.0 1.0 0.00 0.00 0.00 75 1015.5
20260905043624 82 186 1.0 1.0 0.00 0.00 0.00 75 1015.5
20260905043120 82 215 0.0 1.0 0.00 0.00 0.00 75 1015.5
20260905042619 82 236 0.0 0.0 0.00 0.00 0.00 74 1015.5
20260905042114 82 189 1.0 1.0 0.00 0.00 0.00 74 1015.5
20260905041609 82 222 0.0 1.0 0.00 0.00 0.00 74 1015.8
20260905041104 82 211 0.0 0.0 0.00 0.00 0.00 74 1015.5
20260905040559 82 220 0.0 0.0 0.00 0.00 0.00 74 1015.5
20260905040057 82 243 0.0 0.0 0.00 0.00 0.00 73 1015.5
20260905035553 82 190 0.0 0.0 0.00 0.00 0.00 72 1015.5
20260905035049 82 157 0.0 0.0 0.00 0.00 0.00 72 1015.2
20260905034545 83 252 0.0 1.0 0.00 0.00 0.00 72 1015.5
20260905034045 83 216 1.0 1.0 0.00 0.00 0.00 71 1015.5
20260905033538 83 235 0.0 1.0 0.00 0.00 0.00 71 1015.5
20260905033034 83 236 0.0 1.0 0.00 0.00 0.00 71 1015.5
20260905032535 83 203 1.0 1.0 0.00 0.00 0.00 70 1015.5
20260905032030 83 157 1.0 2.0 0.00 0.00 0.00 70 1015.2
20260905031526 83 237 0.0 0.0 0.00 0.00 0.00 69 1015.5
20260905031025 84 221 0.0 0.0 0.00 0.00 0.00 68 1015.2
20260905030520 84 210 1.0 1.0 0.00 0.00 0.00 68 1015.2
20260905030015 84 205 1.0 1.0 0.00 0.00 0.00 68 1015.2
20260905025510 84 233 0.0 1.0 0.00 0.00 0.00 67 1015.2
20260905025006 84 238 1.0 1.0 0.00 0.00 0.00 67 1015.2
20260905024501 84 205 1.0 2.0 0.00 0.00 0.00 67 1015.2
20260905023956 84 176 2.0 2.0 0.00 0.00 0.00 67 1014.8
20260905023451 84 200 0.0 0.0 0.00 0.00 0.00 68 1015.2
20260905022950 84 243 1.0 1.0 0.00 0.00 0.00 68 1014.8
20260905022445 84 248 0.0 0.0 0.00 0.00 0.00 67 1015.2
20260905021941 84 241 0.0 0.0 0.00 0.00 0.00 67 1014.8
20260905021440 84 114 1.0 1.0 0.00 0.00 0.00 67 1014.5
20260905020936 84 142 0.0 1.0 0.00 0.00 0.00 67 1014.5
20260905020435 85 255 0.0 0.0 0.00 0.00 0.00 66 1014.5
20260905015930 85 247 0.0 0.0 0.00 0.00 0.00 66 1014.5
20260905015428 85 214 1.0 1.0 0.00 0.00 0.00 66 1014.5
20260905014927 85 238 0.0 0.0 0.00 0.00 0.00 66 1014.1
20260905014423 85 241 1.0 1.0 0.00 0.00 0.00 66 1014.5
20260905013918 86 239 0.0 1.0 0.00 0.00 0.00 66 1014.5
20260905013415 86 240 0.0 0.0 0.00 0.00 0.00 66 1014.5
20260905012910 86 203 1.0 1.0 0.00 0.00 0.00 66 1014.1
20260905012405 86 172 1.0 1.0 0.00 0.00 0.00 65 1014.1
20260905011902 86 188 1.0 1.0 0.00 0.00 0.00 65 1014.5
20260905011357 86 239 1.0 1.0 0.00 0.00 0.00 65 1014.5
20260905010853 87 237 3.0 3.0 0.00 0.00 0.00 65 1014.1
20260905010347 87 228 2.0 3.0 0.00 0.00 0.00 64 1014.1
20260905005843 87 156 2.0 2.0 0.00 0.00 0.00 64 1013.8
20260905005339 87 131 3.0 3.0 0.00 0.00 0.00 63 1013.8
20260905004834 87 106 3.0 3.0 0.00 0.00 0.00 63 1013.5
20260905004328 88 121 1.0 2.0 0.00 0.00 0.00 62 1013.8
20260905003824 88 170 1.0 2.0 0.00 0.00 0.00 62 1013.8
20260905003320 88 166 1.0 5.0 0.00 0.00 0.00 62 1013.8
20260905002815 88 80 3.0 5.0 0.00 0.00 0.00 62 1013.8
20260905002309 88 172 3.0 3.0 0.00 0.00 0.00 62 1013.8
20260905001804 88 86 2.0 3.0 0.00 0.00 0.00 62 1013.8
20260905001304 89 142 5.0 7.0 0.00 0.00 0.00 61 1013.8
20260905000759 89 125 4.0 5.0 0.00 0.00 0.00 61 1013.8
20260905000255 89 165 6.0 7.0 0.00 0.00 0.00 61 1013.8
20260904235750 89 78 5.0 5.0 0.00 0.00 0.00 60 1013.5
20260904235250 90 184 4.0 5.0 0.00 0.00 0.00 58 1013.5
20260904234745 90 250 2.0 2.0 0.00 0.00 0.00 57 1013.8
20260904234240 90 137 3.0 5.0 0.00 0.00 0.00 56 1013.5
20260904233736 91 161 3.0 6.0 0.00 0.00 0.00 55 1013.8
20260904233232 91 206 2.0 3.0 0.00 0.00 0.00 55 1013.8
20260904232728 91 165 1.0 2.0 0.00 0.00 0.00 55 1013.8
20260904232224 91 38 3.0 6.0 0.00 0.00 0.00 55 1013.5
20260904231719 91 15 2.0 3.0 0.00 0.00 0.00 55 1013.5
20260904231215 91 43 0.0 1.0 0.00 0.00 0.00 55 1013.5
20260904230709 91 106 2.0 6.0 0.00 0.00 0.00 55 1013.5
20260904230203 91 75 0.0 1.0 0.00 0.00 0.00 55 1013.8
20260904225702 91 130 4.0 6.0 0.00 0.00 0.00 56 1013.5
20260904225156 90 184 4.0 5.0 0.00 0.00 0.00 56 1013.5
20260904224650 90 151 5.0 8.0 0.00 0.00 0.00 57 1013.5
20260904224145 91 152 6.0 8.0 0.00 0.00 0.00 57 1013.8
20260904223644 91 139 5.0 8.0 0.00 0.00 0.00 57 1013.5
20260904223140 91 132 5.0 6.0 0.00 0.00 0.00 57 1013.8
20260904222636 90 223 3.0 3.0 0.00 0.00 0.00 58 1013.8
20260904222131 90 22 4.0 5.0 0.00 0.00 0.00 57 1013.8
20260904221631 91 137 4.0 7.0 0.00 0.00 0.00 56 1013.8
20260904221125 92 43 7.0 11.0 0.00 0.00 0.00 56 1013.5
20260904220620 93 86 5.0 8.0 0.00 0.00 0.00 54 1013.8
20260904220115 95 176 4.0 5.0 0.00 0.00 0.00 48 1013.5
20260904215610 96 168 3.0 3.0 0.00 0.00 0.00 47 1013.5
20260904215106 95 208 1.0 1.0 0.00 0.00 0.00 47 1013.5
20260904214601 95 166 1.0 2.0 0.00 0.00 0.00 48 1013.8
20260904214057 94 290 1.0 1.0 0.00 0.00 0.00 49 1013.8
20260904213554 95 223 2.0 2.0 0.00 0.00 0.00 48 1014.1
20260904213052 95 235 3.0 5.0 0.00 0.00 0.00 46 1014.1
20260904212551 95 195 3.0 7.0 0.00 0.00 0.00 45 1013.8
20260904212046 95 193 7.0 9.0 0.00 0.00 0.00 47 1014.1
20260904211545 95 253 4.0 6.0 0.00 0.00 0.00 48 1014.1
20260904211041 95 204 5.0 6.0 0.00 0.00 0.00 50 1014.5
20260904210540 95 243 1.0 1.0 0.00 0.00 0.00 49 1014.5
20260904210037 95 213 5.0 8.0 0.00 0.00 0.00 49 1014.5
20260904205537 96 269 5.0 6.0 0.00 0.00 0.00 49 1014.5
20260904205033 94 240 3.0 3.0 0.00 0.00 0.00 54 1014.5
20260904204529 93 211 2.0 3.0 0.00 0.00 0.00 55 1014.5
20260904204025 91 256 1.0 1.0 0.00 0.00 0.00 58 1014.5
20260904203521 90 214 3.0 3.0 0.00 0.00 0.00 60 1014.5
20260904203017 90 254 2.0 3.0 0.00 0.00 0.00 59 1014.8
20260904202513 90 243 2.0 2.0 0.00 0.00 0.00 61 1014.8
20260904202009 90 265 2.0 2.0 0.00 0.00 0.00 61 1014.8
20260904201503 89 252 1.0 1.0 0.00 0.00 0.00 61 1015.2
20260904200959 90 303 3.0 3.0 0.00 0.00 0.00 61 1015.2
20260904200457 89 208 3.0 3.0 0.00 0.00 0.00 64 1015.2
20260904195952 88 176 1.0 1.0 0.00 0.00 0.00 65 1015.2
20260904195451 89 259 1.0 1.0 0.00 0.00 0.00 65 1015.2
20260904194950 88 203 1.0 2.0 0.00 0.00 0.00 66 1015.5
20260904194445 88 252 2.0 2.0 0.00 0.00 0.00 66 1015.2
20260904193940 87 263 2.0 2.0 0.00 0.00 0.00 69 1015.2
20260904193435 87 225 1.0 1.0 0.00 0.00 0.00 71 1015.5
20260904192931 87 230 2.0 2.0 0.00 0.00 0.00 71 1015.2
20260904192426 87 199 2.0 2.0 0.00 0.00 0.00 71 1015.5
20260904191922 86 204 1.0 2.0 0.00 0.00 0.00 71 1015.5
20260904191418 86 250 1.0 2.0 0.00 0.00 0.00 73 1015.5
20260904190915 85 213 1.0 1.0 0.00 0.00 0.00 75 1015.8
20260904190410 85 249 3.0 3.0 0.00 0.00 0.00 75 1015.8
20260904185907 84 233 1.0 2.0 0.00 0.00 0.00 76 1016.2
20260904185402 84 266 1.0 1.0 0.00 0.00 0.00 77 1015.8
20260904184901 83 199 2.0 3.0 0.00 0.00 0.00 78 1015.8
20260904184356 83 236 3.0 3.0 0.00 0.00 0.00 80 1016.2
20260904183851 83 196 2.0 2.0 0.00 0.00 0.00 79 1016.2
20260904183347 83 220 3.0 3.0 0.00 0.00 0.00 80 1016.5
20260904182842 84 266 0.0 0.0 0.00 0.00 0.00 82 1016.2
20260904182337 85 257 1.0 2.0 0.00 0.00 0.00 80 1016.2
20260904181832 86 262 0.0 1.0 0.00 0.00 0.00 76 1016.5
20260904181332 86 199 3.0 3.0 0.00 0.00 0.00 70 1016.2
20260904180827 86 188 1.0 1.0 0.00 0.00 0.00 71 1016.5
20260904180323 86 252 2.0 2.0 0.00 0.00 0.00 72 1016.5
20260904175822 86 235 0.0 0.0 0.00 0.00 0.00 71 1016.9
20260904175320 86 224 2.0 3.0 0.00 0.00 0.00 71 1016.5
20260904174815 86 225 3.0 5.0 0.00 0.00 0.00 71 1016.5
20260904174311 86 230 1.0 1.0 0.00 0.00 0.00 73 1016.9
20260904173807 86 218 0.0 0.0 0.00 0.00 0.00 74 1016.5
20260904173302 86 269 0.0 0.0 0.00 0.00 0.00 75 1016.5
20260904172758 86 205 2.0 2.0 0.00 0.00 0.00 74 1016.5
20260904172257 86 272 1.0 1.0 0.00 0.00 0.00 74 1016.9
20260904171752 86 252 0.0 0.0 0.00 0.00 0.00 75 1016.9
20260904171247 85 224 0.0 1.0 0.00 0.00 0.00 76 1017.2
20260904170744 85 205 3.0 3.0 0.00 0.00 0.00 75 1016.9
20260904170239 85 185 1.0 2.0 0.00 0.00 0.00 75 1016.9
20260904165738 85 243 2.0 2.0 0.00 0.00 0.00 75 1016.9
20260904165233 85 234 2.0 2.0 0.00 0.00 0.00 76 1016.9
20260904164732 85 196 2.0 2.0 0.00 0.00 0.00 75 1017.2
20260904164228 85 237 1.0 1.0 0.00 0.00 0.00 77 1016.9
20260904163724 84 205 3.0 3.0 0.00 0.00 0.00 77 1016.9
20260904163219 84 198 3.0 3.0 0.00 0.00 0.00 77 1016.9
20260904162718 84 230 4.0 6.0 0.00 0.00 0.00 77 1016.9
20260904162213 85 211 3.0 3.0 0.00 0.00 0.00 76 1016.5
20260904161709 85 243 2.0 3.0 0.00 0.00 0.00 76 1016.9
20260904161203 85 194 3.0 6.0 0.00 0.00 0.00 76 1016.5
20260904160700 85 274 3.0 6.0 0.00 0.00 0.00 76 1016.5
20260904160154 85 215 3.0 3.0 0.00 0.00 0.00 76 1016.5
20260904155649 85 187 2.0 2.0 0.00 0.00 0.00 77 1016.9
20260904155149 85 179 3.0 5.0 0.00 0.00 0.00 77 1016.5
20260904154647 85 225 3.0 3.0 0.00 0.00 0.00 76 1016.5
20260904154142 84 186 3.0 3.0 0.00 0.00 0.00 77 1016.9
20260904153637 84 261 2.0 2.0 0.00 0.00 0.00 76 1016.5
20260904153132 84 242 3.0 3.0 0.00 0.00 0.00 76 1016.5
20260904152629 84 220 1.0 2.0 0.00 0.00 0.00 78 1016.5
20260904152124 83 243 2.0 2.0 0.00 0.00 0.00 80 1016.2
20260904151619 84 217 7.0 8.0 0.00 0.00 0.00 80 1016.2
20260904151117 83 208 3.0 5.0 0.00 0.00 0.00 82 1016.2
20260904150613 83 259 2.0 3.0 0.00 0.00 0.00 84 1016.2
20260904150109 83 272 2.0 3.0 0.00 0.00 0.00 84 1016.5
20260904145607 82 215 2.0 3.0 0.00 0.00 0.00 84 1016.2
20260904145102 82 244 0.0 0.0 0.00 0.00 0.00 85 1016.2
20260904144558 82 256 2.0 5.0 0.00 0.00 0.00 86 1016.5
20260904144054 82 262 1.0 1.0 0.00 0.00 0.00 86 1016.5
20260904143549 81 277 2.0 2.0 0.00 0.00 0.00 86 1016.2
20260904143046 81 237 3.0 3.0 0.00 0.00 0.00 87 1016.2
20260904142542 81 253 1.0 1.0 0.00 0.00 0.00 88 1016.2
20260904142037 81 191 2.0 2.0 0.00 0.00 0.00 88 1016.2
20260904141532 81 221 0.0 1.0 0.00 0.00 0.00 89 1016.2
20260904141028 81 248 1.0 2.0 0.00 0.00 0.00 89 1016.2
20260904140528 81 258 2.0 2.0 0.00 0.00 0.00 89 1016.2
20260904140022 81 217 4.0 5.0 0.00 0.00 0.00 89 1016.2
20260904135521 81 243 4.0 6.0 0.00 0.00 0.00 89 1015.8
20260904135018 81 279 3.0 5.0 0.00 0.00 0.00 89 1015.8
20260904134513 81 244 2.0 2.0 0.00 0.00 0.00 89 1016.2
20260904134007 81 216 2.0 3.0 0.00 0.00 0.00 88 1015.8
20260904133501 81 222 1.0 2.0 0.00 0.00 0.00 88 1016.2
20260904132957 81 194 1.0 2.0 0.00 0.00 0.00 88 1016.2
20260904132458 81 264 0.0 0.0 0.00 0.00 0.00 88 1016.2
20260904131952 81 266 1.0 1.0 0.00 0.00 0.00 88 1016.2
20260904131447 80 247 0.0 0.0 0.00 0.00 0.00 89 1016.2
20260904130943 80 287 1.0 2.0 0.00 0.00 0.00 89 1016.2
20260904130442 80 202 2.0 2.0 0.00 0.00 0.00 89 1015.8
20260904125937 80 218 2.0 2.0 0.00 0.00 0.00 89 1015.8
20260904125433 80 249 1.0 2.0 0.00 0.00 0.00 89 1015.8
20260904124932 80 220 1.0 1.0 0.00 0.00 0.00 90 1015.5
20260904124429 80 221 1.0 2.0 0.00 0.00 0.00 90 1015.8
20260904123924 80 242 1.0 1.0 0.00 0.00 0.00 89 1015.8
20260904123424 80 200 1.0 2.0 0.00 0.00 0.00 89 1015.5
20260904122920 80 178 1.0 2.0 0.00 0.00 0.00 89 1015.5
20260904122420 80 239 0.0 0.0 0.00 0.00 0.00 89 1015.5
20260904121914 80 219 1.0 1.0 0.00 0.00 0.00 89 1015.5
20260904121411 80 238 1.0 2.0 0.00 0.00 0.00 89 1015.5
20260904120907 80 224 1.0 1.0 0.00 0.00 0.00 89 1015.5
20260904120403 80 256 1.0 1.0 0.00 0.00 0.00 89 1015.2
20260904115857 80 204 3.0 3.0 0.00 0.00 0.00 89 1015.2
20260904115352 80 239 1.0 1.0 0.00 0.00 0.00 89 1015.2
20260904114847 80 237 1.0 2.0 0.00 0.00 0.00 89 1015.2
20260904114342 80 223 1.0 1.0 0.00 0.00 0.00 88 1015.2
20260904113837 80 227 2.0 2.0 0.00 0.00 0.00 88 1015.2
20260904113336 80 139 3.0 3.0 0.00 0.00 0.00 88 1015.2
20260904112832 80 202 1.0 1.0 0.00 0.00 0.00 88 1015.2
20260904112327 80 130 1.0 2.0 0.00 0.00 0.00 88 1015.2
20260904111822 80 169 4.0 6.0 0.00 0.00 0.00 88 1015.2
20260904111318 80 187 1.0 2.0 0.00 0.00 0.00 87 1015.2
20260904110814 80 181 3.0 5.0 0.00 0.00 0.00 88 1015.2
20260904110313 80 186 3.0 3.0 0.00 0.00 0.00 87 1015.2
20260904105807 80 157 2.0 2.0 0.00 0.00 0.00 87 1015.2
20260904105305 80 186 2.0 2.0 0.00 0.00 0.00 87 1015.2
20260904104757 80 201 2.0 3.0 0.00 0.00 0.00 87 1014.8
20260904104253 80 114 1.0 2.0 0.00 0.00 0.00 87 1014.8
20260904103749 80 139 3.0 5.0 0.00 0.00 0.00 87 1014.8
20260904103243 80 200 0.0 0.0 0.00 0.00 0.00 86 1014.8
20260904102739 80 178 1.0 2.0 0.00 0.00 0.00 86 1015.2